sat.trackr.live / text

‹ back to catalog

STARLINK-3991

NORAD 52641 · 2022-052AV

PAYLOAD ACTIVE UNKNOWN

§ Identity

Operator
Country
US
Launch date
2022-05-14
Launch site
AFETR
Launch vehicle
Mass (kg)
RCS (m²)

Purposes: comms

External: N2YO · Heavens-Above · Gunter

§ Orbital elements

Epoch: 2026-09-19T21:57:08.555040Z

Period
94.01 min
Inclination
53.1593°
Eccentricity
0.0001122
Mean motion
15.31698229 rev/d
Perigee alt
470.0 km
Apogee alt
471.5 km
Semi-major
6,848.9 km
B*
1.5517e-5
RAAN
93.6312°
Arg perigee
95.5115°
Mean anomaly
264.6014°
Rev number
24,064

§ Raw data

STARLINK-39911 52641U 22052AV  26262.91468235  .00000116  00000+0  15517-4 0  99952 52641  53.1593  93.6312 0001122  95.5115 264.6014 15.31698229240647

JSON: /api/v1/satellites/52641 · /tle

For live sub-satellite position, see the globe view (requires WebGL).

§ Visibility from observer

Set your observer location to see the next 7 days of passes ≥ 10°. The values pass through the URL so the page stays shareable.

No JS? Fill the form by hand. The geolocation button needs JavaScript.